owner,sensor,date,latitude,longitude,vertical_datum,sea_water_speed,direction_of_sea_water_velocity,upward_sea_water_velocity,qcFlag
Anadarko,ioos:station:wmo:42377:1,2022-09-01T00:03:00Z,27.2925,-90.9681,21.3,115.2,57.7,-9999.0,'111111111,111111111,999999991'
Anadarko,ioos:station:wmo:42377:1,2022-09-01T00:23:00Z,27.2925,-90.9681,21.3,112.5,57.5,-9999.0,'111111111,111111111,999999991'
Anadarko,ioos:station:wmo:42377:1,2022-09-01T00:43:00Z,27.2925,-90.9681,21.3,112.9,57.1,-9999.0,'111111111,111111111,999999991'
Anadarko,ioos:station:wmo:42377:1,2022-09-01T01:03:00Z,27.2925,-90.9681,21.3,111.9,56.1,-9999.0,'111111111,111111111,999999991'
Anadarko,ioos:station:wmo:42377:1,2022-09-01T01:23:00Z,27.2925,-90.9681,21.3,109.6,56.5,-9999.0,'111111111,111111111,999999991'
Anadarko,ioos:station:wmo:42377:1,2022-09-01T01:43:00Z,27.2925,-90.9681,21.3,107.6,56.9,-9999.0,'111111111,111111111,999999991'
Anadarko,ioos:station:wmo:42377:1,2022-09-01T02:03:00Z,27.2925,-90.9681,21.3,108.2,56.4,-9999.0,'111111111,111111111,999999991'
Anadarko,ioos:station:wmo:42377:1,2022-09-01T02:23:00Z,27.2925,-90.9681,21.3,107.9,56.7,-9999.0,'111111111,111111111,999999991'
Anadarko,ioos:station:wmo:42377:1,2022-09-01T02:43:00Z,27.2925,-90.9681,21.3,107.1,57.6,-9999.0,'111111111,111111111,999999991'
Anadarko,ioos:station:wmo:42377:1,2022-09-01T03:03:00Z,27.2925,-90.9681,21.3,106.7,56.1,-9999.0,'111111111,111111111,999999991'
Anadarko,ioos:station:wmo:42377:1,2022-09-01T03:23:00Z,27.2925,-90.9681,21.3,106.5,55.6,-9999.0,'111111111,111111111,999999991'
Anadarko,ioos:station:wmo:42377:1,2022-09-01T03:43:00Z,27.2925,-90.9681,21.3,106.1,56.3,-9999.0,'111111111,111111111,999999991'
Anadarko,ioos:station:wmo:42377:1,2022-09-01T04:03:00Z,27.2925,-90.9681,21.3,105.7,57.5,-9999.0,'111111111,111111111,999999991'
Anadarko,ioos:station:wmo:42377:1,2022-09-01T04:23:00Z,27.2925,-90.9681,21.3,106.8,57.7,-9999.0,'111111111,111111111,999999991'
Anadarko,ioos:station:wmo:42377:1,2022-09-01T04:43:00Z,27.2925,-90.9681,21.3,105.9,56.7,-9999.0,'111111111,111111111,999999991'
Anadarko,ioos:station:wmo:42377:1,2022-09-01T05:03:00Z,27.2925,-90.9681,21.3,106.1,54.6,-9999.0,'111111111,111111111,999999991'
Anadarko,ioos:station:wmo:42377:1,2022-09-01T05:23:00Z,27.2925,-90.9681,21.3,104.6,53.9,-9999.0,'111111111,111111111,999999991'
Anadarko,ioos:station:wmo:42377:1,2022-09-01T05:43:00Z,27.2925,-90.9681,21.3,103.2,53.8,-9999.0,'111111111,111111111,999999991'
Anadarko,ioos:station:wmo:42377:1,2022-09-01T06:03:00Z,27.2925,-90.9681,21.3,102.4,52.9,-9999.0,'111111111,111111111,999999991'
Anadarko,ioos:station:wmo:42377:1,2022-09-01T06:23:00Z,27.2925,-90.9681,21.3,102.4,52.1,-9999.0,'111111111,111111111,999999991'
Anadarko,ioos:station:wmo:42377:1,2022-09-01T06:43:00Z,27.2925,-90.9681,21.3,102.7,51.8,-9999.0,'111111111,111111111,999999991'
Anadarko,ioos:station:wmo:42377:1,2022-09-01T07:03:00Z,27.2925,-90.9681,21.3,103.5,51.9,-9999.0,'111111111,111111111,999999991'
Anadarko,ioos:station:wmo:42377:1,2022-09-01T07:23:00Z,27.2925,-90.9681,21.3,102.5,50.9,-9999.0,'111111111,111111111,999999991'
Anadarko,ioos:station:wmo:42377:1,2022-09-01T07:43:00Z,27.2925,-90.9681,21.3,103.9,50.1,-9999.0,'111111111,111111111,999999991'
Anadarko,ioos:station:wmo:42377:1,2022-09-01T08:03:00Z,27.2925,-90.9681,21.3,105.3,49.4,-9999.0,'111111111,111111111,999999991'
Anadarko,ioos:station:wmo:42377:1,2022-09-01T08:23:00Z,27.2925,-90.9681,21.3,106.8,49.4,-9999.0,'111111111,111111111,999999991'
Anadarko,ioos:station:wmo:42377:1,2022-09-01T08:43:00Z,27.2925,-90.9681,21.3,106.3,50.3,-9999.0,'111111111,111111111,999999991'
Anadarko,ioos:station:wmo:42377:1,2022-09-01T09:03:00Z,27.2925,-90.9681,21.3,106.8,48.6,-9999.0,'111111111,111111111,999999991'
Anadarko,ioos:station:wmo:42377:1,2022-09-01T09:23:00Z,27.2925,-90.9681,21.3,106.0,48.4,-9999.0,'111111111,111111111,999999991'
Anadarko,ioos:station:wmo:42377:1,2022-09-01T09:43:00Z,27.2925,-90.9681,21.3,106.7,47.9,-9999.0,'111111111,111111111,999999991'
Anadarko,ioos:station:wmo:42377:1,2022-09-01T10:03:00Z,27.2925,-90.9681,21.3,106.0,47.6,-9999.0,'111111111,111111111,999999991'
Anadarko,ioos:station:wmo:42377:1,2022-09-01T10:23:00Z,27.2925,-90.9681,21.3,106.7,47.4,-9999.0,'111111111,111111111,999999991'
Anadarko,ioos:station:wmo:42377:1,2022-09-01T10:43:00Z,27.2925,-90.9681,21.3,108.4,47.4,-9999.0,'111111111,111111111,999999991'
Anadarko,ioos:station:wmo:42377:1,2022-09-01T11:03:00Z,27.2925,-90.9681,21.3,106.1,47.8,-9999.0,'111111111,111111111,999999991'
Anadarko,ioos:station:wmo:42377:1,2022-09-01T11:23:00Z,27.2925,-90.9681,21.3,105.4,48.1,-9999.0,'111111111,111111111,999999991'
Anadarko,ioos:station:wmo:42377:1,2022-09-01T11:43:00Z,27.2925,-90.9681,21.3,105.7,48.3,-9999.0,'111111111,111111111,999999991'
Anadarko,ioos:station:wmo:42377:1,2022-09-01T12:03:00Z,27.2925,-90.9681,21.3,105.9,48.7,-9999.0,'111111111,111111111,999999991'
Anadarko,ioos:station:wmo:42377:1,2022-09-01T12:23:00Z,27.2925,-90.9681,21.3,106.4,48.7,-9999.0,'111111111,111111111,999999991'
Anadarko,ioos:station:wmo:42377:1,2022-09-01T12:43:00Z,27.2925,-90.9681,21.3,104.9,49.1,-9999.0,'111111111,111111111,999999991'
Anadarko,ioos:station:wmo:42377:1,2022-09-01T13:03:00Z,27.2925,-90.9681,21.3,105.1,49.7,-9999.0,'111111111,111111111,999999991'
Anadarko,ioos:station:wmo:42377:1,2022-09-01T13:23:00Z,27.2925,-90.9681,21.3,103.2,49.6,-9999.0,'111111111,111111111,999999991'
Anadarko,ioos:station:wmo:42377:1,2022-09-01T13:43:00Z,27.2925,-90.9681,21.3,104.0,49.6,-9999.0,'111111111,111111111,999999991'
Anadarko,ioos:station:wmo:42377:1,2022-09-01T14:03:00Z,27.2925,-90.9681,21.3,104.2,49.8,-9999.0,'111111111,111111111,999999991'
Anadarko,ioos:station:wmo:42377:1,2022-09-01T14:23:00Z,27.2925,-90.9681,21.3,103.5,49.7,-9999.0,'111111111,111111111,999999991'
Anadarko,ioos:station:wmo:42377:1,2022-09-01T14:43:00Z,27.2925,-90.9681,21.3,106.1,51.2,-9999.0,'111111111,111111111,999999991'
Anadarko,ioos:station:wmo:42377:1,2022-09-01T15:03:00Z,27.2925,-90.9681,21.3,107.2,52.0,-9999.0,'111111111,111111111,999999991'
Anadarko,ioos:station:wmo:42377:1,2022-09-01T15:23:00Z,27.2925,-90.9681,21.3,108.6,52.4,-9999.0,'111111111,111111111,999999991'
Anadarko,ioos:station:wmo:42377:1,2022-09-01T15:43:00Z,27.2925,-90.9681,21.3,109.7,52.0,-9999.0,'111111111,111111111,999999991'
Anadarko,ioos:station:wmo:42377:1,2022-09-01T16:03:00Z,27.2925,-90.9681,21.3,110.6,52.6,-9999.0,'111111111,111111111,999999991'
Anadarko,ioos:station:wmo:42377:1,2022-09-01T16:23:00Z,27.2925,-90.9681,21.3,111.5,52.7,-9999.0,'111111111,111111111,999999991'
Anadarko,ioos:station:wmo:42377:1,2022-09-01T16:43:00Z,27.2925,-90.9681,21.3,110.2,51.3,-9999.0,'111111111,111111111,999999991'
Anadarko,ioos:station:wmo:42377:1,2022-09-01T17:03:00Z,27.2925,-90.9681,21.3,115.4,51.2,-9999.0,'111111111,111111111,999999991'
Anadarko,ioos:station:wmo:42377:1,2022-09-01T17:23:00Z,27.2925,-90.9681,21.3,114.7,52.9,-9999.0,'111111111,111111111,999999991'
Anadarko,ioos:station:wmo:42377:1,2022-09-01T17:43:00Z,27.2925,-90.9681,21.3,114.7,53.8,-9999.0,'111111111,111111111,999999991'
Anadarko,ioos:station:wmo:42377:1,2022-09-01T18:03:00Z,27.2925,-90.9681,21.3,121.2,52.0,-9999.0,'111111111,111111111,999999991'
Anadarko,ioos:station:wmo:42377:1,2022-09-01T18:23:00Z,27.2925,-90.9681,21.3,121.4,53.8,-9999.0,'111111111,111111111,999999991'
Anadarko,ioos:station:wmo:42377:1,2022-09-01T18:43:00Z,27.2925,-90.9681,21.3,122.1,53.8,-9999.0,'111111111,111111111,999999991'
Anadarko,ioos:station:wmo:42377:1,2022-09-01T19:03:00Z,27.2925,-90.9681,21.3,124.1,53.8,-9999.0,'111111111,111111111,999999991'
Anadarko,ioos:station:wmo:42377:1,2022-09-01T19:23:00Z,27.2925,-90.9681,21.3,125.1,53.8,-9999.0,'111111111,111111111,999999991'
Anadarko,ioos:station:wmo:42377:1,2022-09-01T19:43:00Z,27.2925,-90.9681,21.3,122.4,53.9,-9999.0,'111111111,111111111,999999991'
Anadarko,ioos:station:wmo:42377:1,2022-09-01T20:03:00Z,27.2925,-90.9681,21.3,123.8,52.7,-9999.0,'111111111,111111111,999999991'
Anadarko,ioos:station:wmo:42377:1,2022-09-01T20:23:00Z,27.2925,-90.9681,21.3,123.8,51.8,-9999.0,'111111111,111111111,999999991'
Anadarko,ioos:station:wmo:42377:1,2022-09-01T20:43:00Z,27.2925,-90.9681,21.3,123.4,52.1,-9999.0,'111111111,111111111,999999991'
Anadarko,ioos:station:wmo:42377:1,2022-09-01T21:03:00Z,27.2925,-90.9681,21.3,123.3,51.5,-9999.0,'111111111,111111111,999999991'
Anadarko,ioos:station:wmo:42377:1,2022-09-01T21:23:00Z,27.2925,-90.9681,21.3,116.8,53.0,-9999.0,'111111111,111111111,999999991'
Anadarko,ioos:station:wmo:42377:1,2022-09-01T21:43:00Z,27.2925,-90.9681,21.3,116.4,52.6,-9999.0,'111111111,111111111,999999991'
Anadarko,ioos:station:wmo:42377:1,2022-09-01T22:03:00Z,27.2925,-90.9681,21.3,115.7,53.3,-9999.0,'111111111,111111111,999999991'
Anadarko,ioos:station:wmo:42377:1,2022-09-01T22:23:00Z,27.2925,-90.9681,21.3,115.1,54.0,-9999.0,'111111111,111111111,999999991'
Anadarko,ioos:station:wmo:42377:1,2022-09-01T22:43:00Z,27.2925,-90.9681,21.3,112.5,53.9,-9999.0,'111111111,111111111,999999991'
Anadarko,ioos:station:wmo:42377:1,2022-09-01T23:03:00Z,27.2925,-90.9681,21.3,112.1,55.4,-9999.0,'111111111,111111111,999999991'
Anadarko,ioos:station:wmo:42377:1,2022-09-01T23:23:00Z,27.2925,-90.9681,21.3,108.9,56.6,-9999.0,'111111111,111111111,999999991'
Anadarko,ioos:station:wmo:42377:1,2022-09-01T23:43:00Z,27.2925,-90.9681,21.3,108.5,57.5,-9999.0,'111111111,111111111,999999991'
Anadarko,ioos:station:wmo:42377:1,2022-09-02T00:03:00Z,27.2925,-90.9681,21.3,108.5,58.9,-9999.0,'111111111,111111111,999999991'
Anadarko,ioos:station:wmo:42377:1,2022-09-02T00:23:00Z,27.2925,-90.9681,21.3,106.4,61.1,-9999.0,'111111111,111111111,999999991'
Anadarko,ioos:station:wmo:42377:1,2022-09-02T00:43:00Z,27.2925,-90.9681,21.3,105.3,62.3,-9999.0,'111111111,111111111,999999991'
Anadarko,ioos:station:wmo:42377:1,2022-09-02T01:03:00Z,27.2925,-90.9681,21.3,104.7,62.7,-9999.0,'111111111,111111111,999999991'
Anadarko,ioos:station:wmo:42377:1,2022-09-02T01:23:00Z,27.2925,-90.9681,21.3,102.1,64.0,-9999.0,'111111111,111111111,999999991'
Anadarko,ioos:station:wmo:42377:1,2022-09-02T01:43:00Z,27.2925,-90.9681,21.3,99.3,63.5,-9999.0,'111111111,111111111,999999991'
Anadarko,ioos:station:wmo:42377:1,2022-09-02T02:03:00Z,27.2925,-90.9681,21.3,97.9,64.5,-9999.0,'111111111,111111111,999999991'
Anadarko,ioos:station:wmo:42377:1,2022-09-02T02:23:00Z,27.2925,-90.9681,21.3,97.6,65.7,-9999.0,'111111111,111111111,999999991'
Anadarko,ioos:station:wmo:42377:1,2022-09-02T02:43:00Z,27.2925,-90.9681,21.3,96.1,65.2,-9999.0,'111111111,111111111,999999991'
Anadarko,ioos:station:wmo:42377:1,2022-09-02T03:03:00Z,27.2925,-90.9681,21.3,92.0,65.3,-9999.0,'111111111,111111111,999999991'
Anadarko,ioos:station:wmo:42377:1,2022-09-02T03:23:00Z,27.2925,-90.9681,21.3,91.9,65.2,-9999.0,'111111111,111111111,999999991'
Anadarko,ioos:station:wmo:42377:1,2022-09-02T03:43:00Z,27.2925,-90.9681,21.3,94.2,65.1,-9999.0,'111111111,111111111,999999991'
Anadarko,ioos:station:wmo:42377:1,2022-09-02T04:03:00Z,27.2925,-90.9681,21.3,93.3,65.5,-9999.0,'111111111,111111111,999999991'
Anadarko,ioos:station:wmo:42377:1,2022-09-02T04:23:00Z,27.2925,-90.9681,21.3,91.9,65.1,-9999.0,'111111111,111111111,999999991'
Anadarko,ioos:station:wmo:42377:1,2022-09-02T04:43:00Z,27.2925,-90.9681,21.3,91.3,65.1,-9999.0,'111111111,111111111,999999991'
Anadarko,ioos:station:wmo:42377:1,2022-09-02T05:03:00Z,27.2925,-90.9681,21.3,89.6,64.8,-9999.0,'111111111,111111111,999999991'
Anadarko,ioos:station:wmo:42377:1,2022-09-02T05:23:00Z,27.2925,-90.9681,21.3,88.2,64.1,-9999.0,'111111111,111111111,999999991'
Anadarko,ioos:station:wmo:42377:1,2022-09-02T05:43:00Z,27.2925,-90.9681,21.3,87.2,63.6,-9999.0,'111111111,111111111,999999991'
Anadarko,ioos:station:wmo:42377:1,2022-09-02T06:03:00Z,27.2925,-90.9681,21.3,84.7,63.1,-9999.0,'111111111,111111111,999999991'
Anadarko,ioos:station:wmo:42377:1,2022-09-02T06:23:00Z,27.2925,-90.9681,21.3,85.4,61.0,-9999.0,'111111111,111111111,999999991'
Anadarko,ioos:station:wmo:42377:1,2022-09-02T06:43:00Z,27.2925,-90.9681,21.3,85.5,60.0,-9999.0,'111111111,111111111,999999991'
Anadarko,ioos:station:wmo:42377:1,2022-09-02T07:03:00Z,27.2925,-90.9681,21.3,88.3,58.1,-9999.0,'111111111,111111111,999999991'
Anadarko,ioos:station:wmo:42377:1,2022-09-02T07:23:00Z,27.2925,-90.9681,21.3,87.4,57.7,-9999.0,'111111111,111111111,999999991'
Anadarko,ioos:station:wmo:42377:1,2022-09-02T07:43:00Z,27.2925,-90.9681,21.3,86.5,56.8,-9999.0,'111111111,111111111,999999991'
Anadarko,ioos:station:wmo:42377:1,2022-09-02T08:03:00Z,27.2925,-90.9681,21.3,84.9,56.1,-9999.0,'111111111,111111111,999999991'
Anadarko,ioos:station:wmo:42377:1,2022-09-02T08:23:00Z,27.2925,-90.9681,21.3,83.3,55.9,-9999.0,'111111111,111111111,999999991'
Anadarko,ioos:station:wmo:42377:1,2022-09-02T08:43:00Z,27.2925,-90.9681,21.3,86.0,55.1,-9999.0,'111111111,111111111,999999991'
Anadarko,ioos:station:wmo:42377:1,2022-09-02T09:03:00Z,27.2925,-90.9681,21.3,80.3,56.9,-9999.0,'111111111,111111111,999999991'
Anadarko,ioos:station:wmo:42377:1,2022-09-02T09:23:00Z,27.2925,-90.9681,21.3,84.5,56.0,-9999.0,'111111111,111111111,999999991'
Anadarko,ioos:station:wmo:42377:1,2022-09-02T09:43:00Z,27.2925,-90.9681,21.3,87.2,54.4,-9999.0,'111111111,111111111,999999991'
Anadarko,ioos:station:wmo:42377:1,2022-09-02T10:03:00Z,27.2925,-90.9681,21.3,86.8,54.7,-9999.0,'111111111,111111111,999999991'
Anadarko,ioos:station:wmo:42377:1,2022-09-02T10:23:00Z,27.2925,-90.9681,21.3,82.4,54.2,-9999.0,'111111111,111111111,999999991'
Anadarko,ioos:station:wmo:42377:1,2022-09-02T10:43:00Z,27.2925,-90.9681,21.3,78.6,53.8,-9999.0,'111111111,111111111,999999991'
Anadarko,ioos:station:wmo:42377:1,2022-09-02T11:03:00Z,27.2925,-90.9681,21.3,82.6,53.2,-9999.0,'111111111,111111111,999999991'
Anadarko,ioos:station:wmo:42377:1,2022-09-02T11:23:00Z,27.2925,-90.9681,21.3,72.3,54.8,-9999.0,'111111111,111111111,999999991'
Anadarko,ioos:station:wmo:42377:1,2022-09-02T11:43:00Z,27.2925,-90.9681,21.3,80.1,52.8,-9999.0,'111111111,111111111,999999991'
Anadarko,ioos:station:wmo:42377:1,2022-09-02T12:03:00Z,27.2925,-90.9681,21.3,79.7,53.1,-9999.0,'111111111,111111111,999999991'
Anadarko,ioos:station:wmo:42377:1,2022-09-02T12:23:00Z,27.2925,-90.9681,21.3,87.2,53.2,-9999.0,'111111111,111111111,999999991'
Anadarko,ioos:station:wmo:42377:1,2022-09-02T12:43:00Z,27.2925,-90.9681,21.3,88.5,53.0,-9999.0,'111111111,111111111,999999991'
Anadarko,ioos:station:wmo:42377:1,2022-09-02T13:03:00Z,27.2925,-90.9681,21.3,90.4,52.8,-9999.0,'111111111,111111111,999999991'
Anadarko,ioos:station:wmo:42377:1,2022-09-02T13:23:00Z,27.2925,-90.9681,21.3,91.5,53.0,-9999.0,'111111111,111111111,999999991'
Anadarko,ioos:station:wmo:42377:1,2022-09-02T13:43:00Z,27.2925,-90.9681,21.3,93.2,54.1,-9999.0,'111111111,111111111,999999991'
Anadarko,ioos:station:wmo:42377:1,2022-09-02T14:03:00Z,27.2925,-90.9681,21.3,96.9,54.1,-9999.0,'111111111,111111111,999999991'
Anadarko,ioos:station:wmo:42377:1,2022-09-02T14:23:00Z,27.2925,-90.9681,21.3,97.8,53.8,-9999.0,'111111111,111111111,999999991'
Anadarko,ioos:station:wmo:42377:1,2022-09-02T14:43:00Z,27.2925,-90.9681,21.3,96.3,52.5,-9999.0,'111111111,111111111,999999991'
Anadarko,ioos:station:wmo:42377:1,2022-09-02T15:03:00Z,27.2925,-90.9681,21.3,96.2,51.3,-9999.0,'111111111,111111111,999999991'
Anadarko,ioos:station:wmo:42377:1,2022-09-02T15:23:00Z,27.2925,-90.9681,21.3,96.6,50.7,-9999.0,'111111111,111111111,999999991'
Anadarko,ioos:station:wmo:42377:1,2022-09-02T15:43:00Z,27.2925,-90.9681,21.3,98.0,51.4,-9999.0,'111111111,111111111,999999991'
Anadarko,ioos:station:wmo:42377:1,2022-09-02T16:03:00Z,27.2925,-90.9681,21.3,98.9,51.9,-9999.0,'111111111,111111111,999999991'
Anadarko,ioos:station:wmo:42377:1,2022-09-02T16:23:00Z,27.2925,-90.9681,21.3,98.4,51.9,-9999.0,'111111111,111111111,999999991'
Anadarko,ioos:station:wmo:42377:1,2022-09-02T16:43:00Z,27.2925,-90.9681,21.3,99.2,50.9,-9999.0,'111111111,111111111,999999991'
Anadarko,ioos:station:wmo:42377:1,2022-09-02T17:03:00Z,27.2925,-90.9681,21.3,99.0,52.2,-9999.0,'111111111,111111111,999999991'
Anadarko,ioos:station:wmo:42377:1,2022-09-02T17:23:00Z,27.2925,-90.9681,21.3,100.2,52.5,-9999.0,'111111111,111111111,999999991'
Anadarko,ioos:station:wmo:42377:1,2022-09-02T17:43:00Z,27.2925,-90.9681,21.3,102.9,53.1,-9999.0,'111111111,111111111,999999991'
Anadarko,ioos:station:wmo:42377:1,2022-09-02T18:03:00Z,27.2925,-90.9681,21.3,102.6,52.9,-9999.0,'111111111,111111111,999999991'
Anadarko,ioos:station:wmo:42377:1,2022-09-02T18:23:00Z,27.2925,-90.9681,21.3,105.0,53.4,-9999.0,'111111111,111111111,999999991'
Anadarko,ioos:station:wmo:42377:1,2022-09-02T18:43:00Z,27.2925,-90.9681,21.3,108.4,55.1,-9999.0,'111111111,111111111,999999991'
Anadarko,ioos:station:wmo:42377:1,2022-09-02T19:03:00Z,27.2925,-90.9681,21.3,108.5,55.1,-9999.0,'111111111,111111111,999999991'
Anadarko,ioos:station:wmo:42377:1,2022-09-02T19:23:00Z,27.2925,-90.9681,21.3,108.9,55.9,-9999.0,'111111111,111111111,999999991'
Anadarko,ioos:station:wmo:42377:1,2022-09-02T19:43:00Z,27.2925,-90.9681,21.3,109.6,57.5,-9999.0,'111111111,111111111,999999991'
Anadarko,ioos:station:wmo:42377:1,2022-09-02T20:03:00Z,27.2925,-90.9681,21.3,110.1,56.7,-9999.0,'111111111,111111111,999999991'
Anadarko,ioos:station:wmo:42377:1,2022-09-02T20:23:00Z,27.2925,-90.9681,21.3,112.0,58.0,-9999.0,'111111111,111111111,999999991'
Anadarko,ioos:station:wmo:42377:1,2022-09-02T20:43:00Z,27.2925,-90.9681,21.3,112.1,58.2,-9999.0,'111111111,111111111,999999991'
Anadarko,ioos:station:wmo:42377:1,2022-09-02T21:03:00Z,27.2925,-90.9681,21.3,118.6,58.1,-9999.0,'111111111,111111111,999999991'
Anadarko,ioos:station:wmo:42377:1,2022-09-02T21:23:00Z,27.2925,-90.9681,21.3,110.0,60.2,-9999.0,'111111111,111111111,999999991'
Anadarko,ioos:station:wmo:42377:1,2022-09-02T21:43:00Z,27.2925,-90.9681,21.3,110.7,60.0,-9999.0,'111111111,111111111,999999991'
Anadarko,ioos:station:wmo:42377:1,2022-09-02T22:03:00Z,27.2925,-90.9681,21.3,109.9,60.6,-9999.0,'111111111,111111111,999999991'
Anadarko,ioos:station:wmo:42377:1,2022-09-02T22:23:00Z,27.2925,-90.9681,21.3,109.5,62.4,-9999.0,'111111111,111111111,999999991'
Anadarko,ioos:station:wmo:42377:1,2022-09-02T22:43:00Z,27.2925,-90.9681,21.3,109.8,62.9,-9999.0,'111111111,111111111,999999991'
Anadarko,ioos:station:wmo:42377:1,2022-09-02T23:03:00Z,27.2925,-90.9681,21.3,112.8,62.8,-9999.0,'111111111,111111111,999999991'
Anadarko,ioos:station:wmo:42377:1,2022-09-02T23:23:00Z,27.2925,-90.9681,21.3,120.1,62.1,-9999.0,'111111111,111111111,999999991'
Anadarko,ioos:station:wmo:42377:1,2022-09-02T23:43:00Z,27.2925,-90.9681,21.3,120.5,62.7,-9999.0,'111111111,111111111,999999991'
Anadarko,ioos:station:wmo:42377:1,2022-09-03T00:03:00Z,27.2925,-90.9681,21.3,109.6,64.6,-9999.0,'111111111,111111111,999999991'
Anadarko,ioos:station:wmo:42377:1,2022-09-03T00:23:00Z,27.2925,-90.9681,21.3,110.2,64.1,-9999.0,'111111111,111111111,999999991'
Anadarko,ioos:station:wmo:42377:1,2022-09-03T00:43:00Z,27.2925,-90.9681,21.3,111.0,64.5,-9999.0,'111111111,111111111,999999991'
Anadarko,ioos:station:wmo:42377:1,2022-09-03T01:03:00Z,27.2925,-90.9681,21.3,112.3,64.1,-9999.0,'111111111,111111111,999999991'
Anadarko,ioos:station:wmo:42377:1,2022-09-03T01:23:00Z,27.2925,-90.9681,21.3,112.0,64.7,-9999.0,'111111111,111111111,999999991'
Anadarko,ioos:station:wmo:42377:1,2022-09-03T01:43:00Z,27.2925,-90.9681,21.3,112.3,65.5,-9999.0,'111111111,111111111,999999991'
Anadarko,ioos:station:wmo:42377:1,2022-09-03T02:03:00Z,27.2925,-90.9681,21.3,111.7,65.6,-9999.0,'111111111,111111111,999999991'
Anadarko,ioos:station:wmo:42377:1,2022-09-03T02:23:00Z,27.2925,-90.9681,21.3,110.7,66.1,-9999.0,'111111111,111111111,999999991'
Anadarko,ioos:station:wmo:42377:1,2022-09-03T02:43:00Z,27.2925,-90.9681,21.3,111.0,65.6,-9999.0,'111111111,111111111,999999991'
Anadarko,ioos:station:wmo:42377:1,2022-09-03T03:03:00Z,27.2925,-90.9681,21.3,110.1,65.8,-9999.0,'111111111,111111111,999999991'
Anadarko,ioos:station:wmo:42377:1,2022-09-03T03:23:00Z,27.2925,-90.9681,21.3,108.3,65.7,-9999.0,'111111111,111111111,999999991'
Anadarko,ioos:station:wmo:42377:1,2022-09-03T03:43:00Z,27.2925,-90.9681,21.3,107.6,64.5,-9999.0,'111111111,111111111,999999991'
Anadarko,ioos:station:wmo:42377:1,2022-09-03T04:03:00Z,27.2925,-90.9681,21.3,108.2,63.2,-9999.0,'111111111,111111111,999999991'
Anadarko,ioos:station:wmo:42377:1,2022-09-03T04:23:00Z,27.2925,-90.9681,21.3,116.4,62.3,-9999.0,'111111111,111111111,999999991'
Anadarko,ioos:station:wmo:42377:1,2022-09-03T04:43:00Z,27.2925,-90.9681,21.3,115.1,62.3,-9999.0,'111111111,111111111,999999991'
Anadarko,ioos:station:wmo:42377:1,2022-09-03T05:03:00Z,27.2925,-90.9681,21.3,114.5,61.8,-9999.0,'111111111,111111111,999999991'
Anadarko,ioos:station:wmo:42377:1,2022-09-03T05:23:00Z,27.2925,-90.9681,21.3,114.5,61.5,-9999.0,'111111111,111111111,999999991'
Anadarko,ioos:station:wmo:42377:1,2022-09-03T05:43:00Z,27.2925,-90.9681,21.3,113.7,61.6,-9999.0,'111111111,111111111,999999991'
Anadarko,ioos:station:wmo:42377:1,2022-09-03T06:03:00Z,27.2925,-90.9681,21.3,113.7,62.0,-9999.0,'111111111,111111111,999999991'
Anadarko,ioos:station:wmo:42377:1,2022-09-03T06:23:00Z,27.2925,-90.9681,21.3,113.8,61.3,-9999.0,'111111111,111111111,999999991'
Anadarko,ioos:station:wmo:42377:1,2022-09-03T06:43:00Z,27.2925,-90.9681,21.3,112.6,61.3,-9999.0,'111111111,111111111,999999991'
Anadarko,ioos:station:wmo:42377:1,2022-09-03T07:03:00Z,27.2925,-90.9681,21.3,111.7,61.1,-9999.0,'111111111,111111111,999999991'
Anadarko,ioos:station:wmo:42377:1,2022-09-03T07:23:00Z,27.2925,-90.9681,21.3,112.3,60.3,-9999.0,'111111111,111111111,999999991'
Anadarko,ioos:station:wmo:42377:1,2022-09-03T07:43:00Z,27.2925,-90.9681,21.3,113.3,59.6,-9999.0,'111111111,111111111,999999991'
Anadarko,ioos:station:wmo:42377:1,2022-09-03T08:03:00Z,27.2925,-90.9681,21.3,113.3,58.8,-9999.0,'111111111,111111111,999999991'
Anadarko,ioos:station:wmo:42377:1,2022-09-03T08:23:00Z,27.2925,-90.9681,21.3,113.6,57.7,-9999.0,'111111111,111111111,999999991'
Anadarko,ioos:station:wmo:42377:1,2022-09-03T08:43:00Z,27.2925,-90.9681,21.3,114.4,56.8,-9999.0,'111111111,111111111,999999991'
Anadarko,ioos:station:wmo:42377:1,2022-09-03T09:03:00Z,27.2925,-90.9681,21.3,115.5,56.7,-9999.0,'111111111,111111111,999999991'
Anadarko,ioos:station:wmo:42377:1,2022-09-03T09:23:00Z,27.2925,-90.9681,21.3,115.6,56.7,-9999.0,'111111111,111111111,999999991'
Anadarko,ioos:station:wmo:42377:1,2022-09-03T09:43:00Z,27.2925,-90.9681,21.3,115.5,56.5,-9999.0,'111111111,111111111,999999991'
Anadarko,ioos:station:wmo:42377:1,2022-09-03T10:03:00Z,27.2925,-90.9681,21.3,115.5,56.7,-9999.0,'111111111,111111111,999999991'
Anadarko,ioos:station:wmo:42377:1,2022-09-03T10:23:00Z,27.2925,-90.9681,21.3,116.2,56.9,-9999.0,'111111111,111111111,999999991'
Anadarko,ioos:station:wmo:42377:1,2022-09-03T10:43:00Z,27.2925,-90.9681,21.3,116.7,57.0,-9999.0,'111111111,111111111,999999991'
Anadarko,ioos:station:wmo:42377:1,2022-09-03T11:03:00Z,27.2925,-90.9681,21.3,117.6,57.3,-9999.0,'111111111,111111111,999999991'
Anadarko,ioos:station:wmo:42377:1,2022-09-03T11:23:00Z,27.2925,-90.9681,21.3,118.6,57.1,-9999.0,'111111111,111111111,999999991'
Anadarko,ioos:station:wmo:42377:1,2022-09-03T11:43:00Z,27.2925,-90.9681,21.3,118.0,57.0,-9999.0,'111111111,111111111,999999991'
Anadarko,ioos:station:wmo:42377:1,2022-09-03T12:03:00Z,27.2925,-90.9681,21.3,118.7,56.7,-9999.0,'111111111,111111111,999999991'
Anadarko,ioos:station:wmo:42377:1,2022-09-03T12:23:00Z,27.2925,-90.9681,21.3,119.1,56.9,-9999.0,'111111111,111111111,999999991'
Anadarko,ioos:station:wmo:42377:1,2022-09-03T12:43:00Z,27.2925,-90.9681,21.3,118.4,57.3,-9999.0,'111111111,111111111,999999991'
Anadarko,ioos:station:wmo:42377:1,2022-09-03T13:03:00Z,27.2925,-90.9681,21.3,118.2,57.9,-9999.0,'111111111,111111111,999999991'
Anadarko,ioos:station:wmo:42377:1,2022-09-03T13:23:00Z,27.2925,-90.9681,21.3,118.7,57.7,-9999.0,'111111111,111111111,999999991'